Regional Weather Roundup
Issued by NWS

Home | Current Version | Previous Version | Graphics & Text | Print | Product List | Glossary On
Versions: 1 2 3 4 5 6 7 8 9 10 11 12 13 14 15 16 17 18 19 20 21 22 23 24 25 26 27 28 29 30 31 32 33 34 35 36 37 38 39 40 41 42 43 44 45 46 47 48 49 50
725
ASUS43 KFSD 191002
RWRSD

WEATHER ROUNDUP FOR SOUTH DAKOTA
NATIONAL WEATHER SERVICE SIOUX FALLS SD
400 AM CST FRI JAN 19 2018

NOTE: "FAIR" INDICATES FEW OR NO CLOUDS BELOW 12,000 FEET WITH NO
SIGNIFICANT WEATHER AND/OR OBSTRUCTIONS TO VISIBILITY.


SDZ001>005-009-010-012>017-191100-
NORTHWEST AND NORTH CENTRAL SOUTH DAKOTA

CITY           SKY/WX    TMP DP  RH WIND       PRES   REMARKS
BUFFALO          N/A     40  29  64 N6        29.49F
FAITH            N/A     40  28  62 W7        29.56F
MOBRIDGE       MOCLDY    30  24  78 SE7       29.53F WCI  23
$$

SDZ012>016-024>037-041>051-057-063-072>074-191100-
SOUTHWEST AND SOUTH CENTRAL SOUTH DAKOTA

CITY           SKY/WX    TMP DP  RH WIND       PRES   REMARKS
RAPID CTY ARPT CLOUDY    39  27  62 E3        29.58F
PIERRE         CLOUDY    23  22  96 W3        29.58F
CUSTER         CLOUDY    45  20  36 W20G31    29.71R
ELLSWORTH AFB  CLOUDY    43  28  56 W7        29.58F
PHILIP         CLOUDY    30  26  85 NW5       29.59F WCI  25
PINE RIDGE     CLOUDY    36  29  75 NW5       29.67F
SPEARFISH        N/A     55  27  33 SW29G45   29.54F
WINNER         FAIR      44  31  60 SW8       29.61F
$$

SDZ004>011-016>023-039-040-191100-
NORTHEAST SOUTH DAKOTA

CITY           SKY/WX    TMP DP  RH WIND       PRES   REMARKS
ABERDEEN       MOCLDY    29  26  89 S10       29.58F WCI  20
WATERTOWN      CLOUDY    29  26  89 SE8       29.60F WCI  21
BROOKINGS      CLOUDY    28  26  92 SE7       29.63F WCI  21
SISSETON         N/A     42  26  53 CALM      29.54F
$$

SDZ017-020-022-023-036>040-048>070-191100-
SOUTHEAST SOUTH DAKOTA

CITY           SKY/WX    TMP DP  RH WIND       PRES   REMARKS
SIOUX FALLS    CLOUDY    28  25  88 MISG      29.65F
HURON          CLOUDY    28  26  92 SE6       29.60F WCI  22
CHAMBERLAIN    CLOUDY    32  30  93 CALM      29.60F
MITCHELL       CLOUDY    33  29  85 S3        29.62F
YANKTON        CLOUDY    29  26  89 E5        29.66F WCI  24
$$

ABBREVIATIONS USED IN REMARKS
   TC - TEMPERATURE IN CELSIUS
  WCI - WIND CHILL INDEX
   HX - HEAT INDEX
  VSB - VISIBILITY





USA.gov is the U.S. government's official web portal to all federal, state and local government web resources and services.